AirNav   Everest Fuels
 
 1605 users online  

7S4 Wisdom Airport
Wisdom, Montana, USA

GOING TO WISDOM?


FAA INFORMATION EFFECTIVE 28 MARCH 2019

Location

FAA Identifier: 7S4
Lat/Long: 45-35-29.7230N / 113-27-33.2120W
45-35.495383N / 113-27.553533W
45.5915897 / -113.4592256
(estimated)
Elevation: 6133 ft. / 1869.3 m (surveyed)
Variation: 17E (1985)
From city: 2 miles S of WISDOM, MT
Time zone: UTC -6 (UTC -7 during Standard Time)
Zip code: 59761

Airport Operations

Airport use: Open to the public
Activation date: 08/1951
Control tower: no
ARTCC: SALT LAKE CITY CENTER
FSS: GREAT FALLS FLIGHT SERVICE STATION
NOTAMs facility: GTF (NOTAM-D service available)
Attendance: UNATNDD
Wind indicator: yes
Segmented circle: no

Airport Communications

CTAF: 122.9

Nearby radio navigation aids

VOR radial/distance  VOR name  Freq  Var
CPNr212/39.8COPPERTOWN VOR/DME111.6016E

Airport Services

Parking: tiedowns
Airframe service: NONE
Powerplant service: NONE
Bottled oxygen: NONE
Bulk oxygen: NONE

Runway Information

Runway 1/19

Dimensions: 3445 x 60 ft. / 1050 x 18 m
Surface: turf, in poor condition
MULTIPLE GOPHER AND BADGER HOLES
Runway edge markings: FIRST 600 FT MARKED WITH WHITE CONES.
RUNWAY 1  RUNWAY 19
Gradient: 1.0%1.0%
Traffic pattern: leftleft
Displaced threshold: no520 ft.
DSPLCD THR MARKED WITH 4 RED CONES.
Obstructions: 10 ft. road, 40 ft. from runway, 4:1 slope to clear17 ft. road, 86 ft. from runway, 5:1 slope to clear
RY 19 APCH SLOPE 31:1 TO DSPLCD THLD.

Airport Ownership and Management from official FAA records

Ownership: Publicly-owned
Owner: BEAVERHEAD COUNTY
2 SO PACIFIC ST
DILLON, MT 59725-2799
Phone 406-683-5242
Manager: DENNIS DEVIVO
1265 LOVERS LANE ROAD
DILLON, MT 59725
Phone (406) 660-1791

Airport Operational Statistics

Aircraft operations: 230/year *
78% transient general aviation
22% local general aviation
* for 12-month period ending 19 July 2016

Additional Remarks

ARPT CLSD WINTER MONTHS.
RY 19 +17' ROAD CROSSES RY CL EXTENDED AND IS 66' LEFT AT RY 19 END.
RY 01/19 W EDGE FULL RY LENGTH - HAS 8 TO 14 INCH BERM.
RY HAS 4 FT HIGH FENCE IN TRANS SFC 20 FT FM WEST SIDE EDGE OF RY.

Instrument Procedures

There are no published instrument procedures at 7S4.

Some nearby airports with instrument procedures:

KSMN - Lemhi County Airport (33 nm SW)
3U3 - Bowman Field Airport (42 nm NE)
KDLN - Dillon Airport (43 nm SE)
KBTM - Bert Mooney Airport (46 nm NE)
6S5 - Ravalli County Airport (48 nm NW)
 
Loc | Ops | Rwys | IFR | FBO | Links
Com | Nav | Svcs | Stats | Notes
Area around 7S4 (Wisdom Airport)
 
Road maps at: MapQuest Bing Google
 
Aerial photo
No photo
 
Sectional chart

 
Airport distance calculator
Flying to Wisdom Airport? Find the distance to fly.

From to 7S4

Sunrise and sunset
Times for 24-Apr-2019
 Local
(UTC-6)
 Zulu
(UTC)
Morning civil twilight06:0212:02
Sunrise06:3412:34
Sunset20:3002:30
Evening civil twilight21:0203:02

Current date and time
Zulu (UTC)  24-Apr-2019 15:28:34
Local (UTC-6)  24-Apr-2019 09:28:34
 
METAR
KSMN 
33nm SW 
241456Z AUTO 12004KT 8SM -RA FEW045 OVC055 08/06 A3010 RMK AO2 RAB18 SLP190 P0000 60000 T00780056 53018
KDLN 
43nm SE 
241453Z AUTO 24011KT 10SM OVC075 08/04 A3005 RMK AO2 SLP154 T00780044 53004
KBTM 
46nm NE 
241453Z AUTO 24009KT 10SM OVC090 10/01 A3005 RMK AO2 SLP149 60001 T01000011 50002
K6S5 
48nm NW 
241515Z AUTO 30006KT 10SM FEW060 SCT080 13/02 A3005 RMK AO2
7S1 
49nm E 
SuperAWOS
241455Z AUTO 00000KT 10SM 09/03 A3003
TAF
KSMN 
33nm SW 
241120Z 2412/2512 VRB03KT P6SM SCT070 BKN100 FM241800 35011KT P6SM SCT070 FM242100 35012G18KT P6SM FEW070 FM250300 36005KT P6SM SKC
NOTAMs
Click for the latest NOTAMs
NOTAMs are issued by the DoD/FAA and will open in a separate window not controlled by AirNav.

 

 
 

Would you like to see your business listed on this page?

 If your business provides an interesting product or service to pilots, flight crews, aircraft, or users of the Wisdom Airport, you should consider listing it here.  To start the listing process, click on the button below
 
Add a business
 

Other Pages about Wisdom Airport

Update a link
 
Copyright © AirNav, LLC. All rights reserved. Privacy Policy  Contact